Location: Cambridge (historical)
(38.6883°N, 119.0140°W)
Time: 13:23:06
(UTC+00:00)

Lacrosse 5 rocket - Pass Details

Date: 29 October 2020
Orbit: 458 x 638 km, 57.0° (Epoch: 01 December)

Event Time Altitude Azimuth Distance (km) Brightness Sun altitude
Exits shadow 12:18:14 13° 10° (N) 1,477 3.6 -24.3°
Drops below altitude 10° 12:18:53 10° 17° (NNE) 1,669 4.0 -24.2°
Sets 12:21:27 0° 33° (NNE) 2,577 5.2 -23.7°
